Regional Weather Roundup
Issued by NWS Kansas City/Pleasant Hill, MO

Home | Current Version | Previous Version | Graphics & Text | Print | Product List | Glossary Off
Versions: 1 2 3 4 5 6 7 8 9 10 11 12 13 14 15 16 17 18 19 20 21 22 23 24 25 26 27 28 29 30 31 32 33 34 35 36 37 38 39 40 41 42 43 44 45 46 47 48 49 50

985
ASUS43 KEAX 020310
RWREAX

WEATHER ROUNDUP FOR EASTERN KANSAS AND NORTHWEST MISSOURI
NATIONAL WEATHER SERVICE KANSAS CITY/PLEASANT HILL MO
1000 PM CDT SUN MAY 01 2016

KSZ040-057-103>105-MOZ028-029-037-043-020400-
...KANSAS CITY METROPOLITAN AREA...

CITY           SKY/WX    TMP DP  RH WIND       PRES   REMARKS
K.C. INTL      CLOUDY    49  44  83 N9        30.11R
K.C. DOWNTOWN  CLOUDY    52  44  74 N6        30.11R
LEES SUMMIT    CLOUDY    51  45  79 N13       30.11R
OLATHE - IXD   CLOUDY    49  44  83 N12       30.12R
OLATHE - OJC   CLOUDY    50  44  80 N9        30.11R
LAWRENCE       CLOUDY    50  44  80 N8        30.14R

$$

MOZ001>008-011>017-020>025-030>033-038>040-044>046-053-054-020400-
...NORTHERN AND CENTRAL MISSOURI...

CITY           SKY/WX    TMP DP  RH WIND       PRES   REMARKS
ST. JOSEPH     CLOUDY    49  45  86 N9        30.12R
MOSBY          CLOUDY    50  45  81 NW8       30.11R
WARRENSBURG    CLOUDY    52  45  76 N6        30.08S
WHITEMAN AFB   CLOUDY    53  49  86 NE8       30.07R
CLINTON        MOCLDY    50  48  93 CALM      30.08R
SEDALIA        CLOUDY    54  47  77 N8        30.08R
WARSAW         NOT AVBL
CHILLICOTHE      N/A     50  46  86 VRB5      30.11R
KIRKSVILLE     CLOUDY    48  45  89 NW6       30.08R

$$

MOZ041-047>049-056>058-063>065-088>090-097-020400-
...EASTERN AND SOUTHERN MISSOURI...

CITY           SKY/WX    TMP DP  RH WIND       PRES   REMARKS
ST. LOUIS INTL PTCLDY    59  48  67 NW10      30.01R
SPIRIT OF STL  CLEAR     58  49  72 NW12      30.00R
COLUMBIA       PTCLDY    53  46  77 NW10      30.05S
JEFFERSON CITY CLEAR     54  46  74 NW9       30.06R
ROLLA          MOCLDY    55  46  71 NW7       30.02R
OSAGE BEACH    CLEAR     54  39  58 NW3       30.06R
SPRINGFIELD    CLEAR     55  43  63 W5        30.06R
JOPLIN         CLOUDY    56  49  77 W7        30.09R
WEST PLAINS    CLEAR     57  44  62 NW7       30.03R

$$

IAZ060-094-KSZ022-034>040-054-083-096-NEZ052-066-093-020400-
...KANSAS...SOUTHEAST NEBRASKA AND IOWA...

CITY           SKY/WX    TMP DP  RH WIND       PRES   REMARKS
TOPEKA         CLOUDY    50  42  74 N12       30.14R
MANHATTAN      CLOUDY    49  41  74 N6        30.16R
EMPORIA        CLOUDY    50  43  77 N6        30.15R
CHANUTE        CLOUDY    54  45  71 N10       30.12R
WICHITA        CLOUDY    51  41  68 N14       30.17R
OMAHA          MOCLDY    49  45  86 N3        30.15S
LINCOLN        CLOUDY    49  44  83 N7        30.17F
FALLS CITY     CLOUDY    49  43  80 N7        30.13R
LAMONI         CLOUDY    46  44  93 N7        30.09S
DES MOINES     CLOUDY    49  45  86 NW3       30.11R

$$





USA.gov is the U.S. government's official web portal to all federal, state and local government web resources and services.